AFR4260 LFPO-LFRS

Flight info

Callsign AFR4260
Flight time 0h 45m
Altitude 23000
Route LGL UT176 ROLEN UZ15 ARDOD A5 VALAX
Aircraft A320/M-SDE3FGHIRWY/LB1

Departure

Time 2026-05-04 13:40
Airport Paris-Orly Airport (LFPO)

Arrival

Time 2026-05-04 14:26
Airport Nantes Atlantique Airport (LFRS)
Time Latitude Longitude Altitude Speed Heading
2026-05-04 13:13 48.72754 2.35786 292 ft 0 kts 173°
2026-05-04 13:32 48.72757 2.35786 293 ft 2 kts 173°
2026-05-04 13:33 48.72773 2.35781 299 ft 2 kts 146°
2026-05-04 13:33 48.72786 2.35764 297 ft 2 kts 111°
2026-05-04 13:33 48.72789 2.35739 297 ft 2 kts 76°
2026-05-04 13:33 48.72784 2.35715 296 ft 2 kts 75°
2026-05-04 13:34 48.72780 2.35692 299 ft 2 kts 75°
2026-05-04 13:34 48.72776 2.35668 300 ft 2 kts 75°
2026-05-04 13:34 48.72772 2.35644 301 ft 2 kts 78°
2026-05-04 13:34 48.72771 2.35618 300 ft 2 kts 114°
2026-05-04 13:35 48.72779 2.35596 299 ft 2 kts 140°
2026-05-04 13:35 48.72791 2.35584 299 ft 0 kts 161°
2026-05-04 13:37 48.72785 2.35588 299 ft 7 kts 161°
2026-05-04 13:37 48.72711 2.35619 297 ft 11 kts 165°
2026-05-04 13:37 48.72659 2.35641 298 ft 11 kts 165°
2026-05-04 13:38 48.72558 2.35683 297 ft 12 kts 164°
2026-05-04 13:38 48.72479 2.35694 298 ft 11 kts 205°
2026-05-04 13:38 48.72431 2.35620 297 ft 9 kts 197°
2026-05-04 13:38 48.72353 2.35641 295 ft 13 kts 174°
2026-05-04 13:39 48.72261 2.35602 296 ft 14 kts 192°
2026-05-04 13:39 48.72160 2.35624 296 ft 16 kts 165°
2026-05-04 13:39 48.72049 2.35705 295 ft 19 kts 132°
2026-05-04 13:39 48.71974 2.35900 300 ft 22 kts 115°
2026-05-04 13:40 48.72009 2.36224 298 ft 64 kts 76°
2026-05-04 13:40 48.72205 2.37304 304 ft 144 kts 75°
2026-05-04 13:40 48.72492 2.38878 1009 ft 158 kts 76°
2026-05-04 13:40 48.72786 2.40476 2003 ft 161 kts 75°
2026-05-04 13:41 48.73104 2.42203 2733 ft 179 kts 75°
2026-05-04 13:41 48.73464 2.44148 3373 ft 204 kts 75°
2026-05-04 13:41 48.73870 2.46348 4101 ft 229 kts 74°
2026-05-04 13:42 48.74344 2.51588 5938 ft 265 kts 87°
2026-05-04 13:42 48.74413 2.54404 7157 ft 270 kts 88°
2026-05-04 13:42 48.74218 2.57260 8324 ft 278 kts 109°
2026-05-04 13:42 48.73227 2.59787 9483 ft 284 kts 133°
2026-05-04 13:43 48.71602 2.61512 10605 ft 290 kts 157°
2026-05-04 13:43 48.69614 2.62084 11716 ft 296 kts 182°
2026-05-04 13:43 48.67623 2.61284 12834 ft 303 kts 208°
2026-05-04 13:43 48.66016 2.59163 13722 ft 320 kts 234°
2026-05-04 13:44 48.65197 2.55950 14323 ft 339 kts 264°
2026-05-04 13:44 48.65277 2.52355 15181 ft 345 kts 275°
2026-05-04 13:44 48.65577 2.48734 16141 ft 350 kts 277°
2026-05-04 13:44 48.65952 2.45075 17075 ft 354 kts 277°
2026-05-04 13:45 48.66129 2.41352 17984 ft 357 kts 266°
2026-05-04 13:45 48.65770 2.37634 18804 ft 359 kts 253°
2026-05-04 13:45 48.64896 2.34097 19623 ft 360 kts 245°
2026-05-04 13:45 48.63934 2.30586 20465 ft 363 kts 247°
2026-05-04 13:46 48.63254 2.26843 21297 ft 368 kts 258°
2026-05-04 13:46 48.63088 2.23007 22120 ft 375 kts 270°
2026-05-04 13:46 48.63396 2.19064 22754 ft 380 kts 276°
2026-05-04 13:46 48.63801 2.15120 22939 ft 379 kts 276°
2026-05-04 13:47 48.64206 2.11260 22969 ft 364 kts 276°
2026-05-04 13:47 48.64606 2.07408 22970 ft 384 kts 276°
2026-05-04 13:47 48.65023 2.03287 22976 ft 408 kts 276°
2026-05-04 13:47 48.65454 1.98930 22969 ft 428 kts 276°
2026-05-04 13:48 48.65899 1.94400 22968 ft 444 kts 276°
2026-05-04 13:48 48.66394 1.89719 22965 ft 458 kts 280°
2026-05-04 13:48 48.67304 1.85023 22965 ft 470 kts 285°
2026-05-04 13:48 48.68297 1.80267 22961 ft 478 kts 285°
2026-05-04 13:49 48.69303 1.75450 22961 ft 481 kts 285°
2026-05-04 13:49 48.70312 1.70620 22960 ft 482 kts 285°
2026-05-04 13:49 48.71316 1.65786 22964 ft 482 kts 285°
2026-05-04 13:49 48.72317 1.60939 22970 ft 482 kts 285°
2026-05-04 13:50 48.73314 1.56083 22962 ft 483 kts 285°
2026-05-04 13:50 48.74306 1.51222 22959 ft 483 kts 284°
2026-05-04 13:50 48.74951 1.46258 22955 ft 479 kts 272°
2026-05-04 13:50 48.75211 1.41219 22956 ft 479 kts 272°
2026-05-04 13:51 48.75453 1.36197 22949 ft 479 kts 271°
2026-05-04 13:51 48.75684 1.31163 22949 ft 479 kts 271°
2026-05-04 13:51 48.75909 1.26131 22950 ft 479 kts 271°
2026-05-04 13:51 48.76132 1.21100 22947 ft 479 kts 271°
2026-05-04 13:52 48.76583 1.11017 22951 ft 480 kts 271°
2026-05-04 13:52 48.76812 1.05969 22951 ft 480 kts 271°
2026-05-04 13:52 48.77041 1.00925 22952 ft 480 kts 271°
2026-05-04 13:53 48.77270 0.95869 22955 ft 481 kts 271°
2026-05-04 13:53 48.77493 0.90811 22963 ft 481 kts 271°
2026-05-04 13:53 48.77715 0.85752 22958 ft 481 kts 271°
2026-05-04 13:54 48.78146 0.75646 22956 ft 480 kts 271°
2026-05-04 13:54 48.78283 0.72310 22953 ft 480 kts 271°
2026-05-04 13:54 48.78694 0.62207 22958 ft 480 kts 271°
2026-05-04 13:55 48.78774 0.57154 22949 ft 478 kts 263°
2026-05-04 13:55 48.76317 0.48084 22962 ft 468 kts 229°
2026-05-04 13:55 48.74228 0.44310 22967 ft 467 kts 228°
2026-05-04 13:56 48.72120 0.40566 22961 ft 467 kts 227°
2026-05-04 13:56 48.69999 0.36832 22962 ft 467 kts 227°
2026-05-04 13:56 48.65761 0.29378 22961 ft 468 kts 228°
2026-05-04 13:57 48.63644 0.25641 22960 ft 468 kts 228°
2026-05-04 13:57 48.61530 0.21908 22956 ft 468 kts 228°
2026-05-04 13:58 48.54723 0.11429 22953 ft 466 kts 219°
2026-05-04 13:58 48.49773 0.05117 22954 ft 466 kts 218°
2026-05-04 13:58 48.47290 0.01974 22953 ft 466 kts 218°
2026-05-04 13:59 48.44812 -0.01161 22947 ft 465 kts 218°
2026-05-04 13:59 48.42333 -0.04301 22950 ft 465 kts 218°
2026-05-04 13:59 48.37387 -0.10575 22947 ft 465 kts 218°
2026-05-04 14:00 48.34880 -0.13756 22943 ft 465 kts 218°
2026-05-04 14:00 48.29969 -0.19967 22938 ft 465 kts 218°
2026-05-04 14:00 48.27491 -0.23088 22938 ft 465 kts 218°
2026-05-04 14:01 48.24981 -0.26250 22936 ft 465 kts 218°
2026-05-04 14:01 48.22501 -0.29367 22936 ft 465 kts 218°
2026-05-04 14:01 48.17529 -0.35601 22934 ft 466 kts 218°
2026-05-04 14:02 48.15042 -0.38718 22937 ft 467 kts 217°
2026-05-04 14:02 48.12582 -0.41798 22938 ft 467 kts 217°
2026-05-04 14:02 48.10089 -0.44916 22940 ft 468 kts 217°
2026-05-04 14:02 48.07555 -0.48079 22944 ft 468 kts 217°
2026-05-04 14:03 48.05084 -0.51153 22951 ft 469 kts 217°
2026-05-04 14:03 48.02542 -0.54310 22961 ft 469 kts 217°
2026-05-04 14:03 48.00035 -0.57425 22950 ft 469 kts 217°
2026-05-04 14:03 47.97528 -0.60539 22949 ft 469 kts 217°
2026-05-04 14:04 47.92514 -0.66749 22955 ft 468 kts 217°
2026-05-04 14:04 47.90000 -0.69848 22968 ft 469 kts 217°
2026-05-04 14:04 47.87487 -0.72941 22643 ft 467 kts 217°
2026-05-04 14:05 47.82696 -0.78857 22151 ft 422 kts 217°
2026-05-04 14:05 47.80501 -0.81567 22023 ft 399 kts 217°
2026-05-04 14:05 47.78420 -0.84131 21888 ft 379 kts 217°
2026-05-04 14:06 47.76433 -0.86573 21712 ft 363 kts 216°
2026-05-04 14:06 47.74507 -0.88932 21299 ft 355 kts 216°
2026-05-04 14:06 47.72613 -0.91247 20773 ft 350 kts 217°
2026-05-04 14:06 47.70735 -0.93529 20244 ft 347 kts 217°
2026-05-04 14:07 47.68878 -0.95780 19725 ft 343 kts 217°
2026-05-04 14:07 47.67036 -0.98016 19212 ft 340 kts 217°
2026-05-04 14:07 47.65216 -1.00232 18712 ft 337 kts 217°
2026-05-04 14:07 47.63410 -1.02429 18213 ft 334 kts 217°
2026-05-04 14:08 47.61620 -1.04607 17652 ft 332 kts 217°
2026-05-04 14:08 47.59835 -1.06771 17087 ft 331 kts 217°
2026-05-04 14:08 47.58056 -1.08919 16540 ft 329 kts 217°
2026-05-04 14:08 47.56282 -1.11059 16011 ft 328 kts 217°
2026-05-04 14:09 47.52792 -1.15392 14979 ft 327 kts 219°
2026-05-04 14:09 47.51071 -1.17580 14487 ft 326 kts 219°
2026-05-04 14:10 47.47645 -1.21940 13470 ft 324 kts 219°
2026-05-04 14:10 47.45939 -1.24098 12932 ft 322 kts 219°
2026-05-04 14:10 47.44240 -1.26242 12431 ft 320 kts 219°
2026-05-04 14:10 47.42556 -1.28360 12019 ft 315 kts 219°
2026-05-04 14:11 47.40926 -1.30405 11942 ft 300 kts 219°
2026-05-04 14:11 47.37769 -1.34351 11869 ft 298 kts 219°
2026-05-04 14:11 47.36161 -1.36354 11086 ft 308 kts 219°
2026-05-04 14:12 47.34519 -1.38399 10592 ft 307 kts 219°
2026-05-04 14:12 47.32918 -1.40396 10355 ft 296 kts 219°
2026-05-04 14:12 47.29833 -1.44246 9916 ft 290 kts 220°
2026-05-04 14:13 47.28281 -1.46175 9682 ft 292 kts 219°
2026-05-04 14:13 47.26738 -1.48092 9462 ft 290 kts 219°
2026-05-04 14:13 47.25207 -1.49996 9229 ft 286 kts 219°
2026-05-04 14:13 47.23694 -1.51873 9012 ft 284 kts 219°
2026-05-04 14:14 47.22185 -1.53741 8800 ft 283 kts 219°
2026-05-04 14:14 47.19183 -1.57453 8367 ft 281 kts 219°
2026-05-04 14:14 47.17690 -1.59301 8154 ft 281 kts 219°
2026-05-04 14:15 47.14833 -1.63182 7727 ft 280 kts 231°
2026-05-04 14:15 47.12451 -1.67705 7298 ft 279 kts 231°
2026-05-04 14:16 47.10068 -1.72193 6775 ft 279 kts 231°
2026-05-04 14:16 47.08838 -1.74441 6195 ft 281 kts 230°
2026-05-04 14:17 47.06381 -1.78844 5114 ft 279 kts 231°
2026-05-04 14:17 47.05174 -1.80996 4814 ft 261 kts 231°
2026-05-04 14:17 47.03067 -1.84755 4593 ft 231 kts 231°
2026-05-04 14:18 47.02045 -1.86588 4488 ft 233 kts 231°
2026-05-04 14:18 46.99239 -1.88170 3843 ft 229 kts 159°
2026-05-04 14:19 46.96938 -1.85093 3303 ft 223 kts 125°
2026-05-04 14:19 46.96044 -1.83270 3093 ft 218 kts 122°
2026-05-04 14:19 46.95229 -1.81461 2998 ft 208 kts 120°
2026-05-04 14:19 46.94523 -1.79642 3024 ft 204 kts 108°
2026-05-04 14:20 46.94551 -1.77659 2997 ft 197 kts 64°
2026-05-04 14:20 46.95466 -1.76267 3003 ft 191 kts 25°
2026-05-04 14:20 46.96701 -1.75550 3001 ft 191 kts 23°
2026-05-04 14:21 46.98990 -1.73533 2995 ft 192 kts 28°
2026-05-04 14:21 47.00164 -1.72590 3004 ft 192 kts 26°
2026-05-04 14:21 47.01351 -1.71678 2905 ft 193 kts 26°
2026-05-04 14:21 47.02525 -1.70785 2691 ft 185 kts 25°
2026-05-04 14:22 47.03638 -1.69942 2461 ft 176 kts 25°
2026-05-04 14:22 47.04686 -1.69147 2229 ft 161 kts 25°
2026-05-04 14:22 47.05609 -1.68446 2037 ft 139 kts 25°
2026-05-04 14:22 47.06423 -1.67829 1857 ft 126 kts 24°
2026-05-04 14:23 47.07924 -1.66692 1535 ft 119 kts 24°
2026-05-04 14:23 47.08661 -1.66132 1376 ft 119 kts 25°
2026-05-04 14:23 47.09393 -1.65577 1209 ft 119 kts 25°
2026-05-04 14:24 47.10121 -1.65025 1043 ft 118 kts 24°
2026-05-04 14:24 47.10853 -1.64469 867 ft 119 kts 25°
2026-05-04 14:24 47.11594 -1.63906 704 ft 121 kts 26°
2026-05-04 14:24 47.12342 -1.63338 541 ft 122 kts 26°
2026-05-04 14:25 47.13097 -1.62762 374 ft 123 kts 25°
2026-05-04 14:25 47.14623 -1.61604 97 ft 116 kts 26°
2026-05-04 14:25 47.15208 -1.61155 88 ft 71 kts 27°
2026-05-04 14:26 47.15493 -1.60936 88 ft 28 kts 27°
2026-05-04 14:26 47.15642 -1.60821 87 ft 14 kts 27°
2026-05-04 14:26 47.15664 -1.60703 86 ft 12 kts 112°
2026-05-04 14:26 47.15628 -1.60628 88 ft 7 kts 126°
2026-05-04 14:27 47.15603 -1.60577 90 ft 11 kts 126°
2026-05-04 14:27 47.15539 -1.60446 92 ft 14 kts 127°
2026-05-04 14:27 47.15526 -1.60323 91 ft 10 kts 64°
2026-05-04 14:27 47.15560 -1.60282 90 ft 0 kts 24°
2026-05-04 14:28 47.15581 -1.60272 91 ft 10 kts 13°
2026-05-04 14:28 47.15657 -1.60326 90 ft 8 kts 346°
2026-05-04 14:29 47.15707 -1.60278 90 ft 0 kts 44°
2026-05-04 14:29 47.15717 -1.60263 90 ft 0 kts 44°